Content
SEND FEEDBACK

Daily
Averages
Monthly
Summary
Canada

ST. JOHN'S, NEWFOUNDLAND


Home > North America > Canada > Newfoundland
Elevation: 459 feet     Latitude: 47 37N     Longitude: 052 44W

WEATHER
 
SELECT A DAY
Number of Records: 203,334;   Date Range: 1/1/95 - 8/10/14
 
SHARE

PRINT THIS DATA

[ ← Previous Day ]
WEATHER ALMANAC - JANUARY 21, 2013
[ Next Day → ]
[ °C ]   °F
Weather ElementAverageHighLow
Temperature33.6 °F43 °F (2:30 am)21.2 °F (9:30 pm)
Dewpoint29.1 °F42.8 °F (2:30 am)12.2 °F (7:30 pm)
Humidity83.5 %100 % (12:49 am)54 % (2:30 pm)
Barometer29.53 in29.71 in (11:30 pm)29.42 in (7:20 am)
Wind Speed27.2 mph36.8 mph (2:30 pm)
Wind Gust49.5 mph (4:45 am)
Weather ElementAverage
Visibility11.2 mi
Wind DirectionWSW (241.7 °)

Weather ElementTotal
Precipitation---
Heating Degree Days32.9 (Base 65)
Averaged from 35 records on January 21, 2013
WEATHER CONDITIONS BREAKOUT
WIND DIRECTION BREAKOUT
WEATHER BY HOUR - JANUARY 21, 2013
[ °C ]   °F
Local TimeTemperatureDewpointHumidityBarometerVisibilityWind DirectionWind SpeedGust SpeedPrecipitationEventsConditions
12:49 AM35.6 °F35.6 °F100 %29.65 in1.5 miSouth (190°)24.2 mph29.9 mphRainLight Rain
1:30 AM39.2 °F39.2 °F100 %29.62 in4.0 miSouth (190°)27.6 mphRainLight Rain
2:30 AM43.0 °F42.0 °F96 %29.59 in4.0 miSSW (200°)24.2 mphRainLight Rain
2:30 AM42.8 °F42.8 °F100 %29.59 in4.0 miSSW (200°)24.2 mph36.8 mphRainLight Rain
2:41 AM42.8 °F42.8 °F100 %29.59 in4.0 miSW (220°)20.7 mph31.1 mphRainRain
3:03 AM42.8 °F42.8 °F100 %29.58 in2.5 miSW (220°)23.0 mph31.1 mphRainRain
3:30 AM42.8 °F42.8 °F100 %29.55 in2.5 miSW (220°)25.3 mph33.4 mphRainRain
4:30 AM42.8 °F42.8 °F100 %29.50 in2.5 miSSW (210°)25.3 mphRainRain
4:45 AM42.8 °F42.8 °F100 %29.50 in5.0 miSSW (210°)26.5 mph49.5 mphRainLight Rain
5:30 AM42.8 °F41.0 °F93 %29.46 in6.0 miSSW (210°)25.3 mph35.7 mphRainLight Rain Showers
6:30 AM41.0 °F41.0 °F100 %29.43 in10.0 miSW (220°)20.7 mph33.4 mphRainLight Rain Showers
7:20 AM41.0 °F41.0 °F100 %29.42 in15.0 miWSW (240°)20.7 mph27.6 mphOvercast
7:30 AM41.0 °F41.0 °F100 %29.42 in15.0 miSW (230°)18.4 mph27.6 mphOvercast
8:30 AM38.0 °F37.0 °F95 %29.42 in15.0 miWSW (240°)21.9 mphPartly Cloudy
8:30 AM37.4 °F37.4 °F100 %29.42 in15.0 miWSW (240°)23.0 mph31.1 mphMostly Cloudy
9:30 AM35.6 °F33.8 °F93 %29.42 in15.0 miWSW (250°)27.6 mph34.5 mphOvercast
10:30 AM35.6 °F33.8 °F93 %29.42 in15.0 miWSW (250°)25.3 mph35.7 mphMostly Cloudy
11:30 AM35.6 °F32.0 °F87 %29.42 in15.0 miWSW (250°)27.6 mph35.7 mphScattered Clouds
12:30 PM35.6 °F30.2 °F81 %29.42 in15.0 miWSW (250°)24.2 mph40.3 mphMostly Cloudy
1:03 PM33.8 °F30.2 °F87 %29.42 in5.0 miWest (260°)28.8 mph40.3 mphSnowLight Snow Showers
1:30 PM33.8 °F26.6 °F75 %29.43 in15.0 miWest (260°)33.4 mph39.1 mphScattered Clouds
1:40 PM33.8 °F26.6 °F75 %29.44 in15.0 miWest (260°)31.1 mph41.4 mphScattered Clouds
2:30 PM30.0 °F20.0 °F54 %29.47 in15.0 miWest (260°)35.7 mphPartly Cloudy
2:30 PM30.2 °F19.4 °F64 %29.47 in15.0 miWest (260°)36.8 mph48.3 mphScattered Clouds
3:30 PM28.4 °F17.6 °F64 %29.51 in15.0 miWest (270°)29.9 mph41.4 mphScattered Clouds
4:30 PM24.8 °F15.8 °F69 %29.54 in15.0 miWSW (250°)33.4 mph44.9 mphScattered Clouds
5:30 PM24.8 °F14.0 °F64 %29.57 in15.0 miWest (260°)28.8 mph40.3 mphPartly Cloudy
6:30 PM23.0 °F14.0 °F68 %29.59 in15.0 miWest (270°)27.6 mph40.3 mphScattered Clouds
6:54 PM23.0 °F15.8 °F74 %29.60 in10.0 miWest (260°)29.9 mph41.4 mphSnowLight Snow Showers
7:30 PM23.0 °F12.2 °F63 %29.62 in15.0 miWest (270°)33.4 mph43.7 mphMostly Cloudy
8:30 PM23.0 °F14.0 °F56 %29.64 in15.0 miWest (270°)28.8 mphSnowLight Snow Showers
8:30 PM23.0 °F14.0 °F68 %29.64 in15.0 miWest (270°)29.9 mph42.6 mphSnowLight Snow Showers
9:30 PM21.2 °F12.2 °F68 %29.65 in15.0 miWest (270°)35.7 mph46.0 mphMostly Cloudy
10:30 PM21.2 °F12.2 °F68 %29.68 in15.0 miWest (260°)26.5 mph41.4 mphMostly Cloudy
11:30 PM21.2 °F12.2 °F68 %29.71 in15.0 miWest (270°)26.5 mph44.9 mphMostly Cloudy
Hourly data recorded from CYYT, located miles away from St. John's, Newfoundland







STORIES FROM OUR PARTNERS